Regional Weather Roundup
Issued by NWS

Home | Current Version | Previous Version | Graphics & Text | Print | Product List | Glossary On
Versions: 1 2 3 4 5 6 7 8 9 10 11 12 13 14 15 16 17 18 19 20 21 22 23 24 25 26 27 28 29 30 31 32 33 34 35 36 37 38 39 40 41 42 43 44 45 46 47 48 49 50
000
ASUS45 KBOU 191307
RWRCO

WEATHER ROUNDUP FOR COLORADO
NATIONAL WEATHER SERVICE DENVER/BOULDER CO
600 AM MST FRI DEC 19 2014

NOTE: "FAIR" INDICATES FEW OR NO CLOUDS BELOW 12000 FEET WITH NO
SIGNIFICANT WEATHER AND/OR OBSTRUCTIONS TO VISIBILITY.

COZ001>005-013-030-031-191400-
...NORTHWEST COLORADO...

CITY           SKY/WX    TMP DP  RH WIND       PRES   REMARKS
CRAIG          CLOUDY    24  19  81 NE5       30.20S HAZE    WCI  18
HAYDEN         CLOUDY    18  14  86 S3        30.18S
MEEKER         CLOUDY    22  18  85 CALM      30.20S
MOUNT WERNER   NOT AVBL
STEAMBOAT SPGS CLOUDY    18  16  92 SE5       30.17S WCI  11
WALDEN         PTCLDY     3   0  85 CALM      30.10F
$$

COZ006>008-011-191400-
...WEST CENTRAL VALLEYS...

CITY           SKY/WX    TMP DP  RH WIND       PRES   REMARKS
GRAND JUNCTION CLOUDY    30  27  88 S5        30.22R WCI  25
MONTROSE       CLOUDY    30  26  85 SE3       30.24R
EAGLE          CLOUDY    19  18  93 CALM      30.23R
RIFLE          CLOUDY    29  23  78 SE3       30.22R
DELTA          CLOUDY    29  26  86 CALM      30.24R
NUCLA          CLOUDY    30  28  93 NE5       30.26R WCI  25
$$

COZ017>023-064>068-191400-
...SOUTHWEST COLORADO...

CITY           SKY/WX    TMP DP  RH WIND       PRES   REMARKS
DURANGO        CLOUDY    22  18  85 N8        30.18R WCI  12
CORTEZ         CLEAR     18  15  88 NE6       30.23R WCI  10
PAGOSA SPRINGS CLOUDY    13  11  95 CALM      30.17R
TELLURIDE      NOT AVBL
WOLF CREEK PAS LGT SNOW   5   5 100 MISG      30.08R VSB 1
$$

COZ009-010-012-014-032>034-037-058>063-191400-
...CENTRAL COLORADO...

CITY           SKY/WX    TMP DP  RH WIND       PRES   REMARKS
ASPEN          CLOUDY    22  17  81 S6        30.16R WCI  14
BUENA VISTA    PTCLDY    19  10  66 NW13      30.11R WCI   7
COPPER MTN     CLOUDY    12   5  73 MISG      30.06R
BERTHOUD PASS  CLOUDY     3   0  85 MISG      30.03S
COTTONWOOD PAS PTCLDY    23   7  50 W21G28    30.07R WCI   8
GUNNISON       CLOUDY    16   7  67 N8        30.20S WCI   5
KREMMLING      LGT SNOW N/A N/A N/A CALM      30.20R
LEADVILLE      CLOUDY    10   5  80 NE9       30.10R WCI  -3
MONARCH PASS   CLOUDY     9   5  85 MISG      30.14R
SALIDA         PTCLDY    19  12  73 N9        30.19S WCI   8
SUNLIGHT       LGT SNOW N/A N/A N/A CALM      30.14R
WILKERSON PASS PTCLDY    10   3  72 NW13G20   30.05R WCI  -5
$$

COZ069>075-191400-
...SAN LUIS VALLEY/SANGRE DE CRISTO MOUNTAINS...

CITY           SKY/WX    TMP DP  RH WIND       PRES   REMARKS
ALAMOSA        FOG        2   0  91 NE3       30.14R VSB 1/4
LA VETA PASS   CLOUDY    16  12  86 MISG      30.04R
SAGUACHE       PTCLDY    19  12  73 NW13      30.14R WCI   7
$$

COZ035-036-038>040-191400-
...NORTHERN COLORADO FRONT RANGE...

CITY           SKY/WX    TMP DP  RH WIND       PRES   REMARKS
DENVER INTL AP PTCLDY    23  20  88 SW8       30.07R WCI  14
DMNS CITY PARK   N/A     24  21  91 SE3       30.08R
AURORA         PTCLDY    23  20  88 SW5       30.07R WCI  17
FRONT RANGE AP CLEAR     28  23  80 SW7       30.08R WCI  21
ERIE MUNI ARPT   N/A     16  14  93 CALM      30.09R
BOULDER MUN AP CLEAR     27  23  86 SW5       30.08R WCI  21
CENTENNIAL     PTCLDY    20  16  84 CALM      30.07R
BROOMFIELD     MOCLDY    30  25  80 CALM      30.07R
FORT COLLINS   CLEAR     23  19  86 CALM      30.10R
LONGMONT       CLEAR     19  17  88 CALM      30.11R
$$

COZ041-046-047-076>085-087-088-191400-
...PIKES PEAK/PALMER DIVIDE AND SOUTHERN FOOTHILLS...

CITY           SKY/WX    TMP DP  RH WIND       PRES   REMARKS
COLO. SPRINGS  PTCLDY    20  18  92 N8        30.07S WCI  10
A. F. ACADEMY  CLEAR     15  12  88 N7        30.06R WCI   5
ELLICOTT       NOT AVBL
FALCON         FOG       22  21  98 N3        30.06S VSB 1/2
FORT CARSON    CLEAR     22  18  85 NW8       30.06R WCI  12
LIMON          CLEAR     13  11  92 N7        30.08R WCI   3
MONUMENT HILL  CLEAR     19  16  86 SW6       30.05R WCI  11
TRINIDAD       CLEAR     25  20  81 SW14      30.08R WCI  13
$$

COZ042>045-048>051-090-091-191400-
...NORTHEAST COLORADO...

CITY           SKY/WX    TMP DP  RH WIND       PRES   REMARKS
GREELEY ARPT   CLEAR     12   3  67 NW3       30.09R
AKRON          CLOUDY    22  20  92 W16       30.07R FOG     WCI   8
BURLINGTON     CLEAR     22  18  85 W9        30.09R WCI  12
WRAY           CLOUDY    20  17  86 SW7       30.10R WCI  11
STERLING       CLEAR     10   9  92 S6        30.09R FOG     WCI   1
HOLYOKE        NOT AVBL
FORT MORGAN    CLEAR     14  12  92 W9        30.09S WCI   1
$$

COZ086-089-092>099-191400-
...SOUTHEAST COLORADO...

CITY           SKY/WX    TMP DP  RH WIND       PRES   REMARKS
PUEBLO         NOT AVBL
LA JUNTA       CLEAR     27  24  89 W5        30.09S WCI  22
LAMAR          CLEAR     20  18  92 S7        30.09R WCI  11
SPRINGFIELD      N/A     24  21  88 W3        30.07S
$$


USA.gov is the U.S. government's official web portal to all federal, state and local government web resources and services.